www.pogodaiklimat.ru

Погода и климат >> Архив погоды >> Россия >> Забайкальский край >> Ксеньевская


ПОГОДА в Ксеньевской

  • Прогноз погоды в Ксеньевской
  • Монитор погоды в Ксеньевской
  • Саммари погоды в Ксеньевской
  • Климат Ксеньевской
  • Веб-камера в Ксеньевской

АРХИВ ПОГОДЫ в Ксеньевской

Время (UTC), дата Ветер
(напр.,м/с)
 
Видим.   Явления Облачность Т
(С)
Тd
(С)
f
(%)
Тe
(С)
Тes
(С)
Комфортность P
(гПа)
Po
(гПа)
Тmin
(С)
Tmax
(С)
R
(мм)
R24
(мм)
S
(см)
12 13.05 СВ 1 4000 м слаб. дождь 10 баллов +3.7 +2.2 90 +2 +2 1006.4 937.3 +6.3 7
15 13.05 СВ 1 н/о 10 баллов +3.3 +2.0 91 +2 +2 1006.5 937.3
18 13.05 штиль 0 н/о 10 баллов +3.5 +1.5 87 +2 +2 1005.1 936.0
21 13.05 ЮВ 1 50 км 10 баллов +3.2 +1.9 91 +2 +2 1005.2 936.0
00 14.05 СВ 1 50 км 10 баллов +5.2 +2.0 80 +4 +4 1004.7 936.0 +3.1 1
03 14.05 В 1 50 км 10 баллов +7.8 +3.1 72 +7 +7 1004.0 936.0
06 14.05 В 1 50 км 10 баллов +9.6 +4.0 68 +9 +9 1003.5 936.0
09 14.05 С 1 50 км 10 баллов +9.0 +5.9 81 +8 +8 1003.6 936.0
12 14.05 СВ 1 50 км 10 баллов +8.4 +5.7 83 +8 +8 1003.8 936.0 +9.6 0.1
15 14.05 СВ 1 н/о 10 баллов +7.3 +5.3 87 +6 +6 1004.1 936.0
18 14.05 СВ 1 н/о 10 баллов +6.7 +4.5 86 +6 +6 1004.2 936.0
21 14.05 В 2 50 км 9 баллов +6.1 +3.9 86 +4 +4 1003.0 934.7
00 15.05 СВ 4 50 км 9 баллов +11.9 +5.3 64 +10 +10 1000.1 933.3 +5.5
03 15.05 В 6 50 км 9 баллов +16.7 +4.7 45 +16 +16 996.1 930.7
06 15.05 В 7 50 км 7 баллов +18.9 +2.3 33 +18 +20 992.8 928.0
09 15.05 В 6 50 км 10 баллов +19.3 -0.7 26 +19 +19 989.8 925.3
12 15.05 В 7 50 км 10 баллов +16.8 -0.4 31 +16 +16 990.4 925.3 +19.9
15 15.05 В 4 н/о 7 баллов +13.0 +1.6 46 +12 +12 991.3 925.3
18 15.05 СВ 6 н/о 10 баллов +11.0 +1.8 53 +8 +8 991.8 925.3
21 15.05 СВ 4 4000 м слаб. ливневой дождь 10 баллов +9.1 +2.9 65 +6 +6 992.2 925.3
00 16.05 СВ 3 4000 м слаб. ливневой дождь 10 баллов +7.6 +3.8 77 +5 +5 992.5 925.3 +7.4 0.7
03 16.05 СВ 4 4000 м слаб. ливневой дождь 10 баллов +7.1 +3.3 77 +4 +4 994.2 926.7 +7.0
06 16.05 СВ 2 4000 м слаб. ливневой дождь 10 баллов +8.1 +4.1 76 +6 +6 993.9 926.7
09 16.05 С 1 4000 м слаб. ливневой дождь 10 баллов +8.3 +5.2 81 +8 +8 995.3 928.0
12 16.05 штиль 0 4000 м слаб. ливневой дождь 10 баллов +7.0 +5.3 89 +6 +6 997.0 929.3 +8.6 24
15 16.05 СВ 1 н/о слаб. ливневой дождь 10 баллов +6.5 +5.1 91 +5 +5 997.1 929.3
18 16.05 штиль 0 н/о слаб. дождь 10 баллов +5.9 +4.5 91 +5 +5 997.3 929.3
21 16.05 штиль 0 4000 м слаб. ливневой дождь 10 баллов +5.4 +4.4 93 +4 +4 996.0 928.0
00 17.05 штиль 0 4000 м слаб. ливневой дождь 10 баллов +7.0 +5.3 89 +6 +6 997.0 929.3 +8.6 2
03 17.05 Ю 2 50 км 9 баллов +11.2 +5.1 66 +10 +12 994.5 928.0
06 17.05 ЮЗ 4 50 км 10 баллов +10.5 +4.8 68 +8 +8 996.1 929.3
09 17.05 ЮЗ 4 50 км в посл. час ливневой дождь 10 баллов +9.6 +5.8 77 +7 +7 996.3 929.3
12 17.05 ЮЗ 2 4000 м слаб. ливневой дождь 10 баллов +7.1 +4.8 85 +5 +5 998.5 930.7 +12.8 2
15 17.05 штиль 0 н/о слаб. ливневой дождь 10 баллов +5.7 +4.3 91 +5 +5 1000.2 932.0
18 17.05 штиль 0 н/о 10 баллов +5.0 +3.7 91 +4 +4 1001.8 933.3
21 17.05 штиль 0 200 м туман н/о +4.7 +3.7 93 +4 1001.9 933.3
00 18.05 В 2 50 км в посл. час ливневой дождь 9 баллов +8.3 +5.2 81 +6 +7 1000.9 933.3 +4.4 1
03 18.05 СВ 2 50 км в посл. час ливневой дождь 9 баллов +11.4 +3.4 58 +11 +12 1001.7 934.7
06 18.05 С 5 50 км в посл. час ливневой дождь 10 баллов +14.1 +1.0 41 +13 +13 1001.1 934.7
09 18.05 Ю 3 50 км в посл. час ливневой дождь 10 баллов +12.7 +4.4 57 +12 +12 1004.2 937.3
12 18.05 штиль 0 50 км 9 баллов +9.1 +2.9 65 +9 +9 1006.6 938.7 +15.2 0.5
15 18.05 В 2 н/о 9 баллов +5.6 +2.9 83 +3 +3 1010.2 941.3
18 18.05 СВ 1 н/о 9 баллов +3.9 +2.6 91 +2 +2 1010.7 941.3
21 18.05 СВ 1 4000 м слаб. ливневой дождь 10 баллов +3.6 +2.3 91 +2 +2 1012.3 942.7
00 19.05 СВ 3 50 км 9 баллов +7.7 +1.1 63 +5 +6 1012.6 944.0 +3.4 1
03 19.05 СВ 1 50 км 9 баллов +11.7 -0.5 43 +12 +14 1010.3 942.7
06 19.05 СЗ 4 50 км 9 баллов +13.0 +1.0 44 +12 +12 1009.9 942.7
09 19.05 С 5 50 км 7 баллов +11.6 -0.2 44 +9 +10 1010.3 942.7
12 19.05 В 2 50 км 7 баллов +9.6 +0.5 53 +8 +8 1010.8 942.7 +14.4
15 19.05 ЮВ 2 н/о в посл. час ливневой дождь 9 баллов +5.0 +0.2 71 +3 +3 1013.3 944.0
18 19.05 ЮВ 1 н/о 7 баллов +3.1 -0.2 79 +2 +2 1012.4 942.7
21 19.05 СВ 1 50 км 7 баллов +4.2 -4.3 54 +3 +4 1013.6 944.0
00 20.05 С 5 50 км 7 баллов +5.8 -4.1 49 +2 +3 1011.8 942.7 +2.7 0.0
03 20.05 С 5 50 км 7 баллов +10.0 -3.3 39 +8 +10 1009.2 941.3
06 20.05 С 5 50 км 7 баллов +12.9 -3.8 31 +11 +13 1005.7 938.7
09 20.05 С 6 50 км 7 баллов +16.1 -5.6 22 +15 +16 1003.5 937.3

 

Местоположение метеостанции Ксеньевская (Забайкальский край, Россия): широта 53.55 долгота 118.70 высота над уровнем моря 582 м.

В архиве по умолчанию представлена погода в Ксеньевской за последнюю неделю. Архивные данные за месяц целиком и за предыдущие месяцы, начиная с января 2011 года, Вы можете получить, выбрав интересующий диапазон дат из раскрывающегося списка и нажав кнопку "Ввод!".


*Определитесь, кто Вы:
робот инопланетянин человек

Внимание! Время в таблицах - всемирное. Для получения местного времени необходимо прибавить поправку, которая равна 9 ч.

Смотрите также архив погоды в соседних городах и на ближайших метеорологических станциях:

Погода в Могоче (Забайкальский край, Россия) (70 км)
Погода в Усть-Карске (Забайкальский край, Россия) (95 км)
Погода в Урюпино (Забайкальский край, Россия) (124 км)
Погода в Тупике (Забайкальский край, Россия) (125 км)
Погода в Амазаре (Забайкальский край, Россия) (143 км)
Погода в Чернышевске (Забайкальский край, Россия) (161 км)
Погода в Сретенске (Забайкальский край, Россия) (161 км)
Погода в Усть-Каренге (Забайкальский край, Россия) (174 км)
Погода в Зилово (Забайкальский край, Россия) (183 км)
Погода в Покровке (Забайкальский край, Россия) (187 км)

Пояснения к столбцам:

Ветер - указаны скорость ветра в м/с - средняя за 10 мин, порывы в срок и между сроками (в фигурных скобках) и направление, откуда дует ветер: С - северный, СВ - северо-восточный, В - восточный, ЮВ - юго-восточный, Ю - южный, ЮЗ - юго-западный, З - западный, СЗ - северо-западный.
Видимость - горизонтальная дальность видимости в метрах или километрах. При видимости от 1 до 10 км при отсутствии осадков обычно наблюдается дымка, при ухудшении видимости до 1 км и менее - туман. В сухую погоду видимость может ухудшаться дымом, пылью или мглою.
Явления - указаны атмосферные явления, наблюдавшиеся в срок или в последний час перед сроком; фигурными скобками обозначены явления, наблюдавшиеся между сроками (за 1-3 часа до срока); квадратными скобками обозначены град или гололедные отложения с указанием их диаметра в мм.
Облачность - указаны через наклонную черту общая и нижняя облачность в баллах и высота нижней границы облаков в метрах; квадратными скобками обозначены формы облаков: Ci - перистые, Cs - перисто-слоистые, Cc - перисто-кучевые, Ac - высококучевые, As - высокослоистые, Sc - слоисто-кучевые, Ns - слоисто-дождевые, Cu - кучевые, Cb - кучево-дождевые. Подробнее классификацию облаков см. в Атласе облаков (PDF).
T - Температура воздуха - температура, измеренная на высоте 2 м над землей.
Td - Температура точки росы - температура, при понижении до которой содержащийся в воздухе водяной пар достигнет насыщения.
f - Относительная влажность воздуха - влажноcть воздуха, измеренная на высоте 2 м над землей.
Te - Эффективная температура - температура, которую ощущает одетый по сезону человек в тени. Характеристика душности погоды. При расчете учитывается влияние влажности воздуха и скорости ветра на теплоощущения человека.
Tes - Эффективная температура на солнце - температура, которую ощущает человек, с поправкой на солнечный нагрев. Характеристика знойности погоды. Зависит от высоты солнца над горизонтом, облачности и скорости ветра. Ночью, в пасмурную погоду, а также при ветре 12 м/с и более поправка равна нулю.
P - Атмосферное давление - приведенное к уровню моря атмосферное давление.
Po - Атмосферное давление - измеренное на уровне метеостанции атмосферное давление.
Tmin - Минимальная температура - минимум температуры воздуха на высоте 2 м над землей.
Tmax - Максимальная температура - максимум температуры воздуха на высоте 2 м над землей.
R - Количество осадков - Количество выпавших осадков за период времени, мм. При наведении курсора мыши на число - период времени, за который выпало указанное количество осадков.
R24 - Количество осадков - Количество выпавших осадков за 24 часа, мм.
S - Снежный покров - Высота снежного покрова, см. При наведении курсора мыши на число - состояние снежного покрова и степень покрытия местности в баллах.